Wind_Speed
2 2 2 2 2 2 2 1 1 2 2 2 1 1 1 1 1 1 2 2 2 3 3 3 4 5 5 5 5 5 6 7 6 5 5 6 5 5 5 5 5 5 5 5 5 5 6 6 6
2 2 2 2 2 2 2 2 2 3 2 2 2 2 3 2 2 2 2 2 3 3 3 4 5 5 5 6 7 7 7 7 7 7 6 6 6 5 5 5 5 6 6 6 6 6 6 6 7
3 3 3 3 2 2 2 3 4 4 4 3 3 4 4 3 3 3 3 4 4 4 4 5 5 6 6 7 7 7 8 8 8 7 6 6 6 6 5 5 5 6 6 7 7 7 6 7 7
3 3 3 3 3 3 4 4 4 5 5 5 4 4 4 3 3 3 4 5 5 5 5 5 5 6 6 7 7 7 8 8 8 8 7 7 7 7 7 7 6 7 7 7 7 7 7 8 8
4 4 3 3 3 4 4 4 4 5 5 4 4 5 4 3 3 4 4 5 6 6 6 6 5 6 6 6 7 7 8 8 8 8 7 7 7 8 8 7 7 8 8 8 8 8 8 9 9
4 4 4 4 3 3 3 4 4 4 4 4 4 4 4 4 4 4 5 6 6 6 6 6 6 6 6 6 7 7 8 8 8 8 8 8 8 8 9 8 8 9 9 9 9 9 9 9 9
4 4 4 4 4 4 4 4 4 4 4 3 4 4 4 4 5 5 6 7 7 6 6 6 6 6 6 6 7 7 8 8 8 9 9 8 8 9 9 9 9 9 9 9 10 10 10 10 10
4 4 4 4 5 5 5 5 5 4 4 4 4 5 5 5 5 6 6 7 7 6 6 6 6 6 6 7 7 8 8 9 9 9 9 9 9 9 9 9 10 9 9 10 10 10 11 11 11
5 5 5 5 5 5 5 5 5 5 5 4 5 5 6 6 6 6 6 6 7 7 6 6 7 7 7 8 8 8 9 9 9 10 10 10 10 10 10 10 10 10 10 10 10 11 11 12 12
7 7 7 7 7 6 6 6 6 6 5 5 5 6 6 7 7 7 7 7 7 7 7 7 7 8 8 9 9 9 9 9 10 10 10 10 10 9 10 10 10 10 11 11 11 11 12 12 13
8 8 8 7 7 7 7 7 7 6 6 6 6 6 6 6 7 7 8 7 7 7 8 8 8 8 9 10 10 10 10 10 10 11 11 11 10 10 10 11 11 11 12 12 12 12 13 13 13
9 9 9 8 8 8 8 8 8 7 6 6 6 7 7 7 7 8 8 7 8 8 9 9 9 9 10 11 11 11 11 11 11 11 11 11 11 11 11 11 11 11 12 12 13 13 13 13 13
9 9 9 10 9 9 9 9 9 8 7 6 6 6 7 6 6 7 8 8 8 9 9 9 9 10 11 11 11 11 11 11 10 11 11 11 11 12 12 12 12 12 13 13 13 13 13 13 13
10 10 10 10 10 9 9 9 9 8 8 7 7 7 6 6 6 7 7 8 8 9 9 9 10 10 11 11 11 11 11 10 10 11 11 11 12 12 12 12 12 12 13 13 13 13 13 13 13
10 10 10 10 10 10 10 10 9 9 8 8 8 7 7 7 7 7 7 8 8 9 9 9 10 10 11 11 11 11 11 11 11 12 11 11 12 12 12 12 13 13 13 13 13 13 13 13 13
11 11 11 11 11 11 10 9 9 9 9 8 8 8 8 8 8 8 8 8 8 9 9 9 10 10 11 11 11 11 11 12 12 12 12 12 12 12 13 13 13 14 13 13 12 12 13 13 13
11 11 12 12 12 11 11 10 10 9 9 9 9 9 9 9 9 9 9 9 9 9 9 10 11 11 11 11 10 11 11 11 12 12 12 12 12 12 13 13 13 13 13 13 13 13 13 13 14
11 12 12 12 12 12 12 11 11 10 10 9 9 9 10 10 9 9 9 10 9 9 10 10 11 11 11 11 11 11 12 12 12 12 13 13 13 13 14 14 14 14 14 14 14 14 14 14 15
12 12 12 12 12 13 12 12 11 11 10 10 10 10 10 10 10 10 11 11 11 11 11 11 11 11 11 11 11 12 12 12 12 13 13 13 14 14 14 15 15 15 15 15 15 15 15 15 15
12 12 12 12 13 13 13 12 12 12 11 11 11 11 11 11 11 11 11 12 11 11 12 12 12 12 12 12 12 12 13 13 13 13 13 14 14 15 16 17 15 15 15 16 16 15 15 15 15
13 13 12 13 13 14 13 13 13 12 11 11 12 12 12 12 12 12 12 12 12 12 12 13 13 13 13 13 13 13 13 14 14 14 14 14 15 16 16 16 15 15 16 16 16 16 16 16 15
14 13 13 13 13 13 14 13 13 13 12 12 12 13 13 13 13 12 12 12 12 12 13 13 13 13 13 13 13 13 14 14 14 15 15 16 16 16 16 15 15 16 16 16 16 16 16 16 16
14 14 14 14 14 15 15 15 13 13 13 12 13 13 13 13 13 13 13 12 13 13 14 14 14 14 14 14 14 14 14 14 15 16 16 16 16 16 16 15 16 16 16 16 16 17 17 16 16
15 15 15 15 16 16 15 15 14 13 13 13 14 14 13 13 13 14 14 14 14 14 15 14 14 14 14 14 14 14 15 15 16 16 17 17 17 16 16 17 17 17 17 17 17 18 17 17 17
16 16 16 16 16 16 15 15 14 13 14 15 15 15 14 14 15 15 15 15 15 15 15 15 15 14 14 14 15 15 16 16 17 17 17 17 16 17 17 18 19 19 18 18 18 18 18 18 18
17 17 17 17 16 16 16 16 14 14 15 16 16 15 15 15 16 16 15 15 15 16 16 15 15 15 15 15 15 16 16 16 17 17 17 17 17 17 18 19 20 19 19 19 19 19 19 19 19
17 17 17 17 17 17 17 15 15 15 15 16 16 15 16 16 17 17 16 16 16 16 16 16 15 15 15 16 16 17 17 17 18 18 18 18 18 18 19 19 20 20 20 20 20 20 20 20 20
17 17 17 17 17 17 16 16 16 16 16 16 15 15 16 17 17 17 16 16 17 17 17 17 16 17 17 17 18 18 19 19 19 19 19 20 20 20 20 20 21 21 21 21 21 21 21 21 20
16 17 18 18 19 18 18 17 16 17 17 16 16 17 17 18 18 17 17 17 17 18 18 17 18 18 19 19 19 20 20 20 20 20 20 20 21 21 22 22 22 22 22 22 21 21 20 20 20
18 17 18 19 19 19 19 17 17 17 17 17 17 18 18 19 19 18 18 18 18 18 18 18 19 19 20 20 20 21 21 21 21 21 22 22 22 23 23 23 23 23 22 22 22 21 21 21 20
Wind_Direction
252 252 252 247 249 242 229 224 244 273 277 265 245 255 298 322 305 282 305 315 308 307 304 313 328 335 336 338 339 341 340 340 338 337 337 335 330 323 324 320 317 315 311 303 295 285 282 278 273
246 247 251 238 245 251 255 259 263 269 272 279 277 284 287 285 294 291 289 296 306 305 298 302 313 319 326 328 330 332 334 333 332 326 326 326 327 325 317 312 313 312 306 299 293 289 284 278 276
247 249 245 236 252 262 262 267 270 267 265 272 274 277 277 284 288 296 295 290 294 297 296 297 305 310 314 317 323 326 328 328 327 323 321 323 318 317 307 303 304 301 301 297 294 291 285 278 274
256 263 253 256 257 260 264 267 272 277 270 268 269 270 272 280 279 291 297 297 294 295 298 299 301 309 315 319 322 323 324 323 323 321 317 316 312 311 303 298 298 297 297 296 292 287 287 284 279
265 264 266 269 272 265 263 267 275 277 277 269 268 269 263 267 277 282 291 297 296 296 300 301 303 305 308 312 316 318 318 319 319 319 315 312 307 307 303 297 297 297 294 292 290 285 288 286 284
263 264 269 276 277 274 268 272 271 270 278 275 275 269 275 277 278 285 289 295 294 293 294 295 296 297 301 303 308 310 314 315 314 311 310 310 306 306 301 295 297 295 294 291 289 287 288 286 283
266 267 267 272 278 279 284 287 288 284 278 277 276 283 290 289 287 285 287 294 296 297 295 295 296 297 296 301 307 309 312 313 311 309 308 309 307 303 296 294 295 295 295 292 287 284 284 284 281
266 272 269 271 283 284 286 288 292 288 282 272 272 279 286 287 286 284 287 292 294 296 295 296 300 300 301 302 304 309 311 315 313 311 311 310 305 303 301 298 295 294 294 294 289 284 282 281 282
267 271 273 273 280 285 288 293 293 288 285 279 274 274 279 285 286 284 287 291 293 297 295 295 297 300 303 304 303 305 306 308 309 309 307 307 304 305 304 301 296 296 294 292 291 287 283 282 282
269 272 273 272 275 280 285 290 293 291 288 283 283 280 282 281 282 284 285 285 290 294 296 296 298 299 301 301 300 300 302 302 303 304 304 302 305 304 302 301 299 298 295 293 290 288 285 283 282
266 270 273 271 272 274 280 286 288 289 287 285 285 286 284 280 282 286 286 285 288 293 294 295 295 295 296 297 298 299 299 297 298 301 302 299 300 302 302 301 300 299 298 294 290 288 287 285 285
263 267 269 269 269 270 276 283 285 285 287 287 282 282 280 280 283 284 287 289 291 292 294 296 296 297 297 296 297 298 299 299 297 296 296 296 297 300 302 300 298 299 299 296 291 289 289 287 286
263 264 265 267 270 273 274 278 282 284 283 285 284 284 283 279 283 285 285 289 292 293 294 294 295 297 298 296 296 296 299 302 302 298 294 297 301 302 300 299 298 300 299 296 293 292 292 290 287
262 262 263 265 268 270 270 271 274 277 278 278 280 280 281 283 287 289 288 291 292 293 294 295 295 297 297 295 294 295 299 301 304 304 302 300 300 302 299 299 301 301 300 298 296 295 293 292 290
261 263 265 265 266 270 270 269 272 274 276 277 277 278 281 285 288 290 293 295 294 294 295 296 296 297 297 297 296 297 298 298 300 302 302 302 302 301 298 298 298 299 299 299 298 296 293 291 291
264 262 262 266 268 269 268 267 270 273 275 278 278 277 280 282 288 293 296 297 297 297 296 297 296 296 297 298 297 298 298 297 298 298 300 300 301 301 299 297 298 297 298 299 298 297 295 292 290
264 264 262 263 266 267 266 266 269 272 275 277 276 277 279 282 286 291 297 298 298 297 298 297 296 296 297 297 296 297 296 296 296 296 296 297 297 301 301 298 299 298 299 298 297 298 296 293 291
267 267 264 262 264 264 265 266 267 270 273 275 277 279 281 283 287 290 295 298 298 299 301 301 299 297 297 295 295 295 295 296 297 298 296 295 296 299 300 297 296 298 300 299 296 297 296 294 291
265 264 263 263 263 264 265 267 267 268 272 274 276 279 282 285 288 290 292 295 298 300 302 302 301 296 295 296 297 297 297 297 298 299 298 296 297 299 300 300 299 298 299 299 298 296 295 293 291
261 262 262 262 263 265 265 264 266 269 273 274 275 277 280 285 287 288 291 293 295 298 299 301 301 298 295 293 294 295 296 297 298 298 299 298 298 300 302 301 300 298 299 299 299 297 295 294 291
259 262 263 262 262 262 263 262 264 267 269 272 274 277 280 285 286 289 291 292 293 294 296 299 301 299 296 293 293 294 295 298 300 301 301 302 303 304 303 304 303 303 301 300 299 297 295 293 291
257 260 261 260 260 260 261 261 261 265 268 271 275 276 280 283 281 285 288 289 290 293 297 299 300 299 296 294 294 293 294 295 298 300 301 301 302 306 304 304 303 303 303 302 301 297 295 293 290
258 259 260 261 262 262 261 263 260 264 267 268 272 276 280 282 281 281 285 288 289 293 297 298 298 298 296 294 294 295 294 294 296 298 298 299 302 304 303 304 303 303 302 302 301 298 297 295 291
259 258 259 260 263 262 262 264 262 264 266 267 270 274 279 281 281 283 285 287 289 293 297 298 298 298 295 294 294 295 293 293 295 297 297 298 299 301 301 301 300 300 300 300 298 298 296 294 291
256 257 259 261 263 265 265 265 267 267 268 269 271 274 277 280 281 282 286 288 290 292 294 295 296 296 295 293 294 294 294 293 294 295 296 297 298 301 300 300 299 298 298 297 297 298 296 294 291
255 257 261 265 267 267 267 269 271 272 273 273 273 273 276 279 281 284 287 289 290 290 290 291 295 294 294 293 294 295 294 294 294 294 295 296 298 299 299 298 298 296 295 294 295 297 296 294 292
255 256 259 264 266 268 269 271 271 274 275 275 274 274 277 280 283 285 285 287 288 288 288 289 292 292 293 293 293 294 294 293 293 293 293 295 297 298 298 298 297 296 295 293 293 294 293 293 291
256 258 260 262 268 272 272 274 273 274 275 276 275 276 278 281 283 284 283 285 286 287 287 289 291 292 292 292 292 292 292 292 292 292 292 293 295 297 298 299 298 296 295 293 292 293 291 290 289
255 255 259 265 268 273 275 274 275 275 276 277 276 277 279 280 282 283 281 282 283 285 287 289 291 292 291 291 291 292 291 291 292 293 293 293 294 295 296 297 296 294 294 293 293 292 293 292 289
255 258 260 264 268 271 274 275 276 275 277 276 276 277 277 279 280 281 280 279 281 283 286 289 290 291 292 291 291 292 291 291 291 292 293 293 294 293 293 293 293 293 293 292 291 291 292 291 289
Height
5869 5870 5870 5871 5872 5872 5872 5872 5873 5873 5873 5873 5873 5873 5873 5874 5875 5877 5875 5873 5873 5873 5873 5873 5872 5872 5871 5870 5870 5869 5869 5868 5867 5867 5866 5866 5865 5865 5865 5865 5865 5865 5864 5864 5864 5865 5865 5865 5865
5869 5870 5871 5872 5872 5872 5873 5872 5873 5873 5873 5873 5873 5873 5873 5873 5873 5873 5873 5873 5873 5873 5873 5872 5872 5871 5871 5870 5869 5869 5868 5868 5867 5867 5866 5865 5865 5864 5864 5864 5864 5864 5863 5863 5864 5864 5864 5864 5863
5870 5870 5872 5872 5871 5872 5873 5872 5872 5872 5872 5872 5873 5873 5873 5873 5873 5873 5873 5872 5872 5872 5872 5872 5871 5871 5870 5870 5869 5868 5868 5867 5866 5866 5865 5865 5864 5864 5863 5863 5863 5863 5862 5862 5862 5862 5862 5862 5862
5870 5871 5872 5872 5871 5872 5872 5872 5872 5872 5872 5872 5872 5872 5872 5872 5872 5872 5872 5872 5872 5872 5871 5871 5870 5870 5870 5869 5868 5868 5867 5866 5865 5865 5864 5864 5863 5863 5862 5862 5862 5861 5861 5861 5861 5861 5861 5861 5861
5870 5871 5872 5871 5871 5872 5872 5872 5872 5872 5871 5871 5871 5871 5871 5872 5872 5872 5871 5871 5871 5871 5870 5870 5870 5869 5869 5868 5868 5867 5866 5865 5864 5864 5863 5863 5862 5862 5861 5861 5861 5860 5860 5860 5860 5860 5859 5859 5859
5870 5870 5871 5871 5871 5871 5871 5871 5871 5871 5870 5870 5871 5871 5871 5871 5871 5871 5871 5870 5870 5870 5869 5869 5868 5868 5867 5867 5866 5866 5865 5864 5863 5862 5862 5861 5860 5860 5860 5859 5859 5859 5858 5858 5858 5858 5857 5857 5857
5870 5870 5870 5870 5871 5871 5871 5871 5870 5870 5870 5870 5870 5870 5870 5870 5870 5870 5870 5869 5869 5869 5868 5868 5867 5867 5866 5866 5865 5864 5864 5863 5862 5861 5860 5860 5859 5858 5858 5857 5857 5857 5856 5856 5856 5855 5855 5855 5855
5869 5870 5869 5870 5870 5870 5870 5870 5869 5869 5869 5870 5870 5869 5869 5869 5869 5869 5868 5868 5868 5867 5867 5867 5866 5866 5865 5865 5864 5863 5863 5862 5861 5860 5859 5858 5857 5857 5856 5855 5855 5855 5854 5854 5853 5853 5853 5853 5853
5868 5870 5869 5869 5869 5869 5869 5869 5869 5869 5869 5869 5868 5868 5868 5868 5868 5868 5867 5867 5867 5866 5866 5865 5865 5865 5864 5863 5863 5862 5861 5860 5860 5859 5858 5857 5856 5855 5854 5853 5853 5852 5852 5851 5851 5850 5850 5850 5850
5867 5868 5868 5868 5868 5868 5868 5868 5868 5868 5868 5868 5867 5867 5867 5867 5867 5866 5866 5866 5865 5865 5865 5864 5864 5863 5862 5862 5861 5860 5860 5859 5858 5857 5856 5855 5854 5853 5852 5852 5851 5850 5850 5849 5848 5848 5848 5847 5847
5866 5866 5866 5866 5867 5867 5867 5867 5867 5867 5867 5866 5866 5866 5866 5866 5865 5865 5865 5864 5864 5864 5863 5863 5862 5861 5861 5860 5859 5858 5858 5857 5856 5855 5854 5853 5852 5852 5851 5850 5849 5848 5848 5847 5846 5845 5845 5844 5844
5864 5865 5865 5865 5865 5865 5865 5865 5865 5865 5866 5865 5865 5865 5865 5864 5864 5863 5863 5863 5862 5862 5861 5861 5860 5859 5858 5858 5857 5856 5855 5855 5854 5853 5852 5851 5850 5850 5849 5848 5847 5846 5845 5844 5844 5843 5842 5841 5841
5863 5863 5863 5863 5863 5864 5864 5864 5864 5864 5864 5864 5864 5863 5863 5863 5862 5862 5861 5861 5860 5860 5859 5859 5858 5857 5856 5856 5855 5854 5853 5852 5851 5851 5850 5849 5848 5847 5846 5845 5845 5843 5843 5842 5841 5840 5839 5838 5837
5861 5861 5861 5862 5862 5862 5863 5862 5863 5862 5862 5862 5862 5862 5861 5861 5861 5860 5860 5859 5859 5858 5857 5856 5856 5855 5854 5853 5853 5852 5851 5850 5849 5849 5848 5847 5846 5845 5844 5843 5842 5841 5840 5839 5837 5836 5835 5834 5834
5859 5860 5860 5860 5860 5860 5861 5861 5861 5861 5861 5861 5860 5860 5860 5860 5859 5859 5858 5857 5857 5856 5855 5854 5853 5852 5852 5851 5850 5849 5849 5848 5847 5846 5845 5844 5844 5842 5842 5840 5839 5838 5837 5836 5834 5833 5832 5831 5830
5857 5858 5858 5858 5858 5858 5860 5860 5859 5859 5859 5859 5859 5858 5858 5858 5857 5857 5856 5855 5855 5854 5853 5852 5851 5850 5849 5849 5848 5847 5846 5845 5845 5844 5843 5842 5841 5840 5839 5838 5836 5835 5834 5832 5831 5830 5829 5828 5827
5855 5856 5856 5856 5856 5856 5857 5857 5857 5857 5857 5857 5857 5856 5856 5856 5855 5855 5854 5853 5852 5851 5850 5850 5849 5848 5847 5846 5845 5845 5844 5843 5842 5841 5840 5839 5838 5837 5836 5834 5833 5832 5831 5829 5828 5827 5826 5825 5824
5853 5853 5853 5854 5854 5854 5854 5855 5855 5855 5855 5855 5854 5854 5854 5853 5853 5852 5851 5851 5850 5849 5848 5847 5846 5845 5845 5844 5843 5842 5841 5840 5839 5838 5837 5836 5835 5834 5832 5831 5830 5828 5827 5826 5825 5823 5822 5821 5821
5850 5851 5851 5851 5851 5852 5852 5852 5853 5853 5853 5853 5852 5852 5851 5851 5850 5850 5849 5848 5847 5847 5846 5845 5844 5843 5842 5841 5840 5839 5838 5837 5836 5835 5834 5833 5831 5830 5829 5828 5826 5825 5824 5822 5821 5820 5819 5818 5817
5847 5848 5848 5849 5849 5849 5849 5850 5850 5850 5851 5850 5850 5850 5849 5848 5848 5847 5846 5846 5845 5844 5843 5842 5841 5840 5839 5838 5837 5836 5835 5834 5833 5832 5831 5830 5828 5827 5825 5824 5822 5821 5820 5818 5817 5816 5815 5814 5813
5844 5845 5846 5846 5846 5846 5847 5848 5848 5848 5848 5848 5847 5847 5847 5846 5845 5844 5844 5843 5842 5841 5840 5839 5838 5837 5836 5835 5834 5833 5832 5831 5830 5829 5828 5826 5825 5823 5821 5820 5818 5817 5816 5814 5813 5812 5811 5810 5808
5842 5842 5842 5843 5843 5843 5844 5845 5845 5845 5845 5845 5845 5844 5844 5843 5843 5842 5841 5840 5839 5838 5837 5836 5835 5833 5832 5831 5830 5830 5829 5828 5827 5825 5824 5822 5821 5819 5817 5816 5814 5813 5811 5810 5809 5807 5806 5805 5804
5839 5839 5839 5839 5839 5840 5841 5841 5843 5842 5842 5842 5842 5841 5841 5840 5840 5839 5838 5837 5836 5835 5834 5832 5831 5830 5829 5828 5827 5826 5825 5824 5823 5821 5820 5818 5817 5815 5814 5812 5811 5809 5807 5806 5804 5803 5802 5801 5799
5835 5836 5836 5836 5836 5837 5838 5838 5839 5840 5840 5839 5839 5838 5838 5837 5837 5836 5835 5834 5833 5831 5830 5829 5828 5826 5825 5824 5823 5822 5821 5820 5818 5817 5816 5814 5813 5811 5810 5808 5806 5805 5803 5802 5800 5798 5797 5796 5795
5831 5832 5833 5832 5833 5834 5835 5835 5837 5837 5836 5836 5836 5835 5835 5834 5833 5832 5831 5830 5829 5828 5827 5825 5824 5823 5822 5821 5819 5818 5817 5816 5814 5813 5811 5810 5809 5807 5806 5804 5802 5800 5799 5797 5796 5794 5792 5791 5790
5828 5829 5830 5830 5830 5831 5831 5831 5834 5833 5833 5832 5832 5831 5831 5830 5829 5828 5827 5826 5825 5824 5823 5822 5821 5819 5818 5817 5815 5814 5813 5812 5810 5808 5807 5806 5804 5803 5801 5799 5797 5795 5794 5792 5791 5789 5788 5786 5785
5824 5825 5826 5826 5826 5827 5827 5828 5829 5829 5828 5828 5828 5827 5827 5826 5825 5824 5823 5822 5821 5820 5819 5818 5817 5815 5814 5813 5811 5810 5808 5807 5805 5804 5802 5801 5799 5798 5796 5794 5792 5790 5789 5787 5785 5784 5782 5781 5779
5821 5821 5822 5822 5822 5823 5824 5824 5825 5825 5824 5824 5824 5823 5823 5822 5821 5820 5819 5818 5817 5816 5815 5814 5812 5811 5810 5808 5806 5805 5804 5802 5800 5799 5797 5795 5794 5792 5790 5788 5787 5785 5783 5781 5780 5778 5777 5775 5774
5817 5818 5818 5818 5818 5819 5819 5822 5821 5820 5820 5820 5819 5819 5818 5817 5817 5816 5814 5813 5812 5811 5810 5809 5808 5806 5805 5803 5801 5800 5798 5796 5795 5793 5792 5790 5788 5786 5785 5783 5781 5779 5777 5776 5774 5772 5771 5769 5768
5813 5813 5814 5815 5814 5814 5814 5819 5816 5815 5815 5815 5815 5814 5813 5813 5812 5811 5810 5808 5807 5806 5805 5804 5802 5801 5799 5797 5796 5794 5792 5791 5789 5787 5786 5784 5782 5780 5778 5776 5775 5773 5771 5770 5768 5766 5765 5763 5762